Hourly Weather Barlovo

Today, 8 May, Saturday

Time Temperature Precipitation Wind Pressure Humidity
00:00 +6°C° 0.5 mm 4 mps 736 mmHg 91%
01:00 +6°C° 0.5 mm 4 mps 736 mmHg 93%
02:00 +5°C° 0 mm 4 mps 735 mmHg 94%
03:00 +5°C° 0.3 mm 4 mps 735 mmHg 94%
04:00 +5°C° 0.3 mm 4 mps 735 mmHg 95%
05:00 +5°C° 0.3 mm 3 mps 735 mmHg 95%
06:00 +5°C° 0.1 mm 3 mps 736 mmHg 93%
07:00 +5°C° 0.1 mm 3 mps 736 mmHg 91%
08:00 +5°C° 0 mm 3 mps 736 mmHg 88%
09:00 +5°C° 0 mm 3 mps 737 mmHg 86%
10:00 +5°C° 0 mm 3 mps 737 mmHg 83%
11:00 +5°C° 0 mm 3 mps 737 mmHg 80%
12:00 +7°C° 0 mm 3 mps 737 mmHg 77%
13:00 +6°C° 0 mm 4 mps 737 mmHg 75%
14:00 +6°C° 0 mm 4 mps 737 mmHg 72%
15:00 +6°C° 0 mm 4 mps 738 mmHg 70%
16:00 +6°C° 0 mm 4 mps 738 mmHg 68%
17:00 +6°C° 0 mm 4 mps 738 mmHg 66%
18:00 +5°C° 0 mm 4 mps 738 mmHg 68%
19:00 +4°C° 0 mm 4 mps 739 mmHg 70%
20:00 +3°C° 0 mm 4 mps 739 mmHg 72%
21:00 +3°C° 0 mm 4 mps 739 mmHg 75%
22:00 +1°C° 0 mm 4 mps 739 mmHg 78%
23:00 +1°C° 0 mm 4 mps 739 mmHg 82%

Tomorrow, 9 May, Sunday

Time Temperature Precipitation Wind Pressure Humidity
00:00 0°C° 0 mm 4 mps 740 mmHg 85%
01:00 0°C° 0 mm 4 mps 741 mmHg 88%
02:00 0°C° 0 mm 4 mps 741 mmHg 91%
03:00 -1°C° 0 mm 4 mps 742 mmHg 90%
04:00 -1°C° 0 mm 4 mps 742 mmHg 89%
05:00 0°C° 0 mm 3 mps 743 mmHg 88%
06:00 +1°C° 0 mm 4 mps 743 mmHg 78%
07:00 +3°C° 0 mm 4 mps 744 mmHg 68%
08:00 +5°C° 0 mm 4 mps 744 mmHg 58%
09:00 +6°C° 0 mm 4 mps 745 mmHg 51%
10:00 +8°C° 0 mm 5 mps 745 mmHg 45%
11:00 +9°C° 0 mm 5 mps 746 mmHg 39%
12:00 +9°C° 0 mm 5 mps 746 mmHg 36%
13:00 +10°C° 0 mm 5 mps 746 mmHg 34%
14:00 +12°C° 0 mm 5 mps 747 mmHg 32%
15:00 +12°C° 0 mm 4 mps 747 mmHg 35%
16:00 +12°C° 0 mm 3 mps 747 mmHg 38%
17:00 +11°C° 0 mm 3 mps 748 mmHg 40%
18:00 +10°C° 0 mm 2 mps 748 mmHg 49%
19:00 +8°C° 0 mm 2 mps 749 mmHg 58%
20:00 +7°C° 0 mm 1 mps 749 mmHg 67%
21:00 +6°C° 0 mm 1 mps 750 mmHg 69%
22:00 +5°C° 0 mm 1 mps 750 mmHg 70%
23:00 +5°C° 0 mm 1 mps 750 mmHg 72%

Day after tomorrow, 10 May, Monday

Time Temperature Precipitation Wind Pressure Humidity
00:00 +4°C° 0 mm 1 mps 751 mmHg 73%
01:00 +3°C° 0 mm 2 mps 751 mmHg 74%
02:00 +3°C° 0 mm 2 mps 751 mmHg 75%
03:00 +3°C° 0 mm 2 mps 752 mmHg 74%
04:00 +3°C° 0 mm 2 mps 752 mmHg 73%
05:00 +3°C° 0 mm 2 mps 752 mmHg 72%
06:00 +4°C° 0 mm 3 mps 752 mmHg 67%
07:00 +7°C° 0 mm 3 mps 752 mmHg 61%
08:00 +9°C° 0 mm 3 mps 752 mmHg 56%
09:00 +11°C° 0 mm 4 mps 752 mmHg 52%
10:00 +12°C° 0 mm 4 mps 752 mmHg 48%
11:00 +14°C° 0 mm 4 mps 752 mmHg 44%
12:00 +15°C° 0 mm 4 mps 752 mmHg 44%
13:00 +17°C° 0 mm 4 mps 752 mmHg 44%
14:00 +18°C° 0 mm 3 mps 752 mmHg 44%
15:00 +17°C° 0 mm 3 mps 752 mmHg 47%
16:00 +17°C° 0 mm 3 mps 752 mmHg 50%
17:00 +17°C° 0 mm 3 mps 752 mmHg 53%
18:00 +15°C° 0 mm 2 mps 753 mmHg 62%
19:00 +13°C° 0 mm 2 mps 753 mmHg 71%
20:00 +10°C° 0 mm 2 mps 753 mmHg 80%
21:00 +9°C° 0 mm 2 mps 753 mmHg 82%
22:00 +8°C° 0 mm 2 mps 753 mmHg 85%
23:00 +7°C° 0 mm 2 mps 754 mmHg 87%

11 May, Tuesday

Time Temperature Precipitation Wind Pressure Humidity
00:00 +7°C° 0 mm 2 mps 754 mmHg 88%
01:00 +7°C° 0 mm 2 mps 754 mmHg 88%
02:00 +6°C° 0 mm 2 mps 754 mmHg 89%
03:00 +6°C° 0 mm 2 mps 754 mmHg 87%
04:00 +6°C° 0 mm 2 mps 754 mmHg 86%
05:00 +6°C° 0 mm 2 mps 754 mmHg 84%
06:00 +9°C° 0 mm 2 mps 754 mmHg 74%
07:00 +12°C° 0 mm 2 mps 754 mmHg 64%
08:00 +13°C° 0 mm 3 mps 754 mmHg 54%
09:00 +16°C° 0 mm 3 mps 754 mmHg 50%
10:00 +17°C° 0 mm 3 mps 754 mmHg 46%
11:00 +19°C° 0 mm 3 mps 754 mmHg 41%
12:00 +19°C° 0 mm 3 mps 754 mmHg 41%
13:00 +20°C° 0 mm 3 mps 753 mmHg 41%
14:00 +20°C° 0 mm 3 mps 753 mmHg 40%
15:00 +20°C° 0 mm 3 mps 753 mmHg 44%
16:00 +20°C° 0 mm 3 mps 752 mmHg 47%
17:00 +19°C° 0 mm 3 mps 752 mmHg 50%
18:00 +17°C° 0 mm 3 mps 752 mmHg 59%
19:00 +15°C° 0 mm 2 mps 752 mmHg 67%
20:00 +12°C° 0 mm 2 mps 752 mmHg 76%
21:00 +12°C° 0 mm 2 mps 752 mmHg 77%
22:00 +10°C° 0 mm 2 mps 752 mmHg 79%
23:00 +9°C° 0 mm 2 mps 752 mmHg 80%

12 May, Wednesday

Time Temperature Precipitation Wind Pressure Humidity
00:00 +9°C° 0 mm 2 mps 752 mmHg 81%
01:00 +8°C° 0 mm 2 mps 752 mmHg 83%
02:00 +8°C° 0 mm 2 mps 752 mmHg 84%
03:00 +8°C° 0 mm 2 mps 752 mmHg 84%
04:00 +8°C° 0 mm 2 mps 752 mmHg 84%
05:00 +9°C° 0 mm 2 mps 751 mmHg 83%
06:00 +12°C° 0 mm 2 mps 751 mmHg 74%
07:00 +13°C° 0 mm 3 mps 751 mmHg 65%
08:00 +17°C° 0 mm 3 mps 751 mmHg 56%
09:00 +18°C° 0 mm 4 mps 750 mmHg 54%
10:00 +20°C° 0 mm 4 mps 750 mmHg 51%
11:00 +21°C° 0 mm 5 mps 750 mmHg 49%
12:00 +21°C° 0.1 mm 5 mps 749 mmHg 53%
13:00 +21°C° 0.1 mm 5 mps 749 mmHg 57%
14:00 +21°C° 0.1 mm 5 mps 749 mmHg 61%
15:00 +20°C° 0.2 mm 5 mps 749 mmHg 66%
16:00 +19°C° 0.2 mm 5 mps 749 mmHg 71%
17:00 +18°C° 0.2 mm 4 mps 749 mmHg 75%
18:00 +17°C° 0.1 mm 3 mps 749 mmHg 80%
19:00 +16°C° 0.1 mm 3 mps 749 mmHg 85%
20:00 +15°C° 0.1 mm 2 mps 749 mmHg 89%
21:00 +14°C° 0 mm 2 mps 748 mmHg 90%
22:00 +14°C° 0 mm 2 mps 748 mmHg 91%
23:00 +13°C° 0 mm 3 mps 748 mmHg 92%

13 May, Thursday

Time Temperature Precipitation Wind Pressure Humidity
00:00 +13°C° 0 mm 3 mps 747 mmHg 93%
01:00 +13°C° 0 mm 3 mps 747 mmHg 93%
02:00 +13°C° 0 mm 3 mps 747 mmHg 94%
03:00 +13°C° 0.1 mm 3 mps 746 mmHg 94%
04:00 +13°C° 0.1 mm 4 mps 746 mmHg 94%
05:00 +14°C° 0.1 mm 4 mps 745 mmHg 93%
06:00 +14°C° 0.4 mm 4 mps 745 mmHg 93%
07:00 +14°C° 0.4 mm 5 mps 745 mmHg 92%
08:00 +14°C° 0.4 mm 5 mps 744 mmHg 92%
09:00 +14°C° 0.5 mm 5 mps 744 mmHg 91%
10:00 +15°C° 0.5 mm 5 mps 744 mmHg 89%
11:00 +15°C° 0.5 mm 5 mps 744 mmHg 88%
12:00 +14°C° 0.5 mm 4 mps 744 mmHg 86%
13:00 +14°C° 0.5 mm 3 mps 744 mmHg 84%
14:00 +13°C° 0.5 mm 3 mps 744 mmHg 81%
15:00 +14°C° 0.1 mm 3 mps 744 mmHg 78%
16:00 +16°C° 0.1 mm 3 mps 744 mmHg 74%
17:00 +17°C° 0.1 mm 4 mps 744 mmHg 70%
18:00 +16°C° 0 mm 3 mps 744 mmHg 76%
19:00 +14°C° 0 mm 2 mps 744 mmHg 82%
20:00 +13°C° 0 mm 2 mps 744 mmHg 88%
21:00 +13°C° 0 mm 2 mps 744 mmHg 90%
22:00 +12°C° 0 mm 2 mps 744 mmHg 92%
23:00 +12°C° 0 mm 2 mps 744 mmHg 95%
Show more